Regional Weather Roundup
Issued by NWS

Home | Current Version | Previous Version | Graphics & Text | Print | Product List | Glossary On
Versions: 1 2 3 4 5 6 7 8 9 10 11 12 13 14 15 16 17 18 19 20 21 22 23 24 25 26 27 28 29 30 31 32 33 34 35 36 37 38 39 40 41 42 43 44 45 46 47 48 49 50
000
ASUS45 KBOU 281407
RWRCO

WEATHER ROUNDUP FOR COLORADO
NATIONAL WEATHER SERVICE DENVER/BOULDER CO
800 AM MDT SUN MAY 28 2017

NOTE: "FAIR" INDICATES FEW OR NO CLOUDS BELOW 12000 FEET WITH NO
SIGNIFICANT WEATHER AND/OR OBSTRUCTIONS TO VISIBILITY.

COZ001>005-013-030-031-281500-
...NORTHWEST COLORADO...

CITY           SKY/WX    TMP DP  RH WIND       PRES   REMARKS
CRAIG          FAIR      42  35  76 CALM      30.37R
HAYDEN         FAIR      41  30  65 E12       30.37S
MEEKER         FAIR      43  32  65 N3        30.37S
RABBIT EARS PA NOT AVBL
STEAMBOAT SPGS NOT AVBL
WALDEN         NOT AVBL
$$

COZ006>008-011-281500-
...WEST CENTRAL VALLEYS...

CITY           SKY/WX    TMP DP  RH WIND       PRES   REMARKS
GRAND JUNCTION FAIR      56  33  42 SE15      30.30R
MONTROSE       FAIR      48  31  51 SE6       30.35R
EAGLE          SUNNY     37  32  81 CALM      30.44R
RIFLE          FAIR      45  33  63 CALM      30.36R
DELTA          FAIR      50  29  45 E3        30.33R
NUCLA          FAIR      52  27  37 SE3       30.34S
$$

COZ017>023-064>068-281500-
...SOUTHWEST COLORADO...

CITY           SKY/WX    TMP DP  RH WIND       PRES   REMARKS
DURANGO        FAIR      44  24  45 CALM      30.30R
CORTEZ         FAIR      47  30  51 CALM      30.29R
PAGOSA SPRINGS FAIR      50  20  29 CALM      30.35R
TELLURIDE      FAIR      39  21  47 CALM      30.41S
WOLF CREEK PAS NOT AVBL
$$

COZ009-010-012-014-032>034-037-058>063-281500-
...CENTRAL COLORADO...

CITY           SKY/WX    TMP DP  RH WIND       PRES   REMARKS
ASPEN          FAIR      40  27  59 VRB3      30.39R
BUENA VISTA    FAIR      39  25  57 NE5       30.42R
COPPER MTN     NOT AVBL
BERTHOUD PASS  NOT AVBL
COTTONWOOD PAS NOT AVBL
GUNNISON       FAIR      36  25  64 N6        30.42S
KREMMLING      NOT AVBL
LEADVILLE      FAIR      30  22  72 CALM      30.44R
SALIDA         FAIR      41  28  58 N3        30.48S
SUNLIGHT       NOT AVBL
WILKERSON PASS NOT AVBL
$$

COZ069>075-281500-
...SAN LUIS VALLEY/SANGRE DE CRISTO MOUNTAINS...

CITY           SKY/WX    TMP DP  RH WIND       PRES   REMARKS
ALAMOSA        FAIR      42  31  64 CALM      30.37R
DEL NORTE      NOT AVBL
LA VETA PASS   NOT AVBL
SAGUACHE       NOT AVBL
$$

COZ035-036-038>040-281500-
...NORTHERN COLORADO FRONT RANGE...

CITY           SKY/WX    TMP DP  RH WIND       PRES   REMARKS
DENVER INTL AP FAIR      52  37  56 SW12      30.28R
DMNS CITY PARK   N/A     53  34  49 SE7       30.28S
AURORA         SUNNY     51  36  55 SW12      30.30R
FRONT RANGE AP SUNNY     54  39  58 SW10      30.29R
ERIE MUNI ARPT NOT AVBL
BOULDER MUN AP NOT AVBL
CENTENNIAL     FAIR      52  34  50 W8        30.30R
BROOMFIELD     SUNNY     54  39  58 W5        30.29R
FORT COLLINS   FAIR      53  38  56 CALM      30.27R
LONGMONT       NOT AVBL
$$

COZ041-046-047-076>085-087-088-281500-
...PIKES PEAK/PALMER DIVIDE AND SOUTHERN FOOTHILLS...

CITY           SKY/WX    TMP DP  RH WIND       PRES   REMARKS
COLO. SPRINGS  FAIR      54  32  43 NW8       30.33R
A. F. ACADEMY  FAIR      48  37  66 N5        30.32S
SCHRIEVER AFB  FAIR      53  29  40 NW13G24   30.32S
CHEYENNE MTN   FAIR      52  24  34 N12       30.29R
ELLICOTT       FAIR     N/A N/A N/A N6        30.31R
FALCON         FAIR      52  28  38 NW8G18    30.35R
FORT CARSON    FAIR      51  37  60 N6        30.31R
LIMON          FAIR      51  41  68 W10       30.28R
MONUMENT HILL  NOT AVBL
CANON CITY     NOT AVBL
WALSENBURG     NOT AVBL
TRINIDAD       FAIR      53  40  61 NW9       30.32R
$$

COZ042>045-048>051-090-091-281500-
...NORTHEAST COLORADO...

CITY           SKY/WX    TMP DP  RH WIND       PRES   REMARKS
GREELEY ARPT   FAIR      51  42  71 SW5       30.27R
AKRON          FAIR      50  41  71 W13       30.23R
BURLINGTON     FAIR      56  46  69 W14       30.21R
WRAY           FAIR      59  43  55 NW10      30.18R
YUMA           NOT AVBL
STERLING       NOT AVBL
HOLYOKE        NOT AVBL
FORT MORGAN    FAIR      49  40  70 W14       30.24S
$$

COZ086-089-092>099-281500-
...SOUTHEAST COLORADO...

CITY           SKY/WX    TMP DP  RH WIND       PRES   REMARKS
PUEBLO         FAIR      54  42  64 NW13      30.28S
LA JUNTA       FAIR      54  46  74 W14       30.25R
LAMAR          FAIR      56  46  69 W13       30.21R
SPRINGFIELD      N/A     56  47  71 NW20      30.24R
$$



USA.gov is the U.S. government's official web portal to all federal, state and local government web resources and services.